This demonstration page uses our WeatherBlox Daily Observations layout. Learn more.

Left ArrowRight Arrow

40.92945, -100.16068

Hourly Observations for May 24, 2020

Temp ( °F °C ) Dew Point ( °F °C ) Humidity (%) Winds ( mph kmh ) Pressure ( in mb ) Visibility ( mi km ) Precip ( " mm )
12:15 am 00:15 Clear 68 19.9 65 18.2 90 90 SE 16 26 29.57 1001 10 16.0934 0 0
12:35 am 00:35 Clear 68 20 65 18.2 89 89 SE 13 20 29.59 1002 10 16.0934 0 0
12:55 am 00:55 Clear 68 20.2 65 18.1 88 88 SSE 17 28 29.57 1001 10 16.0934 0 0
1:15 am 01:15 Mostly Cloudy 62 16.8 55 13 78 78 NNW 35 56 29.72 1006 10 16.0934 0 0
1:35 am 01:35 Cloudy with Light Rain 59 14.8 55 12.6 87 87 N 30 48 29.73 1007 10 16.0934 0 0
1:55 am 01:55 Windy with Storms Likely 57 14.1 55 12.8 92 92 N 25 41 29.72 1007 10 16.0934 0.01 0.254
2:15 am 02:15 Cloudy 57 14 55 12.7 92 92 NNE 17 28 29.73 1007 10 16.0934 0 0
2:35 am 02:35 Cloudy 57 13.9 54 12.3 90 90 NNE 18 30 29.74 1007 10 16.0934 0.01 0.254
2:55 am 02:55 Cloudy 57 13.7 54 12.2 91 91 NNE 16 26 29.73 1007 10 16.0934 0.01 0.254
3:15 am 03:15 Cloudy 57 13.9 54 12.2 90 90 NNE 12 19 29.73 1007 10 16.0934 0 0
3:35 am 03:35 Cloudy 57 14 54 12.3 90 90 NNE 9 15 29.74 1007 10 16.0934 0 0
3:55 am 03:55 Cloudy 57 14.1 55 12.5 90 90 NE 9 15 29.74 1007 10 16.0934 0 0
4:15 am 04:15 Cloudy with Light Rain 57 14 55 12.5 91 91 N 3 6 29.77 1008 10 16.0934 0 0
4:35 am 04:35 Cloudy 57 14 55 12.5 91 91 NE 3 6 29.77 1008 10 16.0934 0 0
4:55 am 04:55 Cloudy 57 14 55 12.5 91 91 Calm 29.77 1008 10 16.0934 0 0
5:15 am 05:15 Cloudy 56 13.5 55 12.5 94 94 N 5 7 29.76 1008 10 16.0934 0 0
5:35 am 05:35 Mostly Cloudy 56 13.2 54 12.3 94 94 NNW 8 13 29.76 1008 10 16.0934 0 0
5:55 am 05:55 Cloudy 56 13.5 54 12.3 93 93 Calm 29.77 1008 10 16.0934 0 0
6:15 am 06:15 Cloudy 56 13.3 54 12.2 93 93 N 3 6 29.76 1008 10 16.0934 0 0
6:35 am 06:35 Cloudy 56 13.2 54 12.1 93 93 Calm 29.79 1009 10 16.0934 0 0
6:55 am 06:55 Cloudy 56 13.3 55 12.5 95 95 NW 6 9 29.8 1009 10 16.0934 0 0
7:15 am 07:15 Cloudy 56 13.5 54 12.1 91 91 NNW 10 17 29.82 1010 10 16.0934 0 0
7:35 am 07:35 Mostly Cloudy 56 13.1 53 11.7 91 91 NNW 9 15 29.83 1010 10 16.0934 0 0
7:55 am 07:55 Cloudy 56 13.2 53 11.6 90 90 NNW 9 15 29.85 1011 10 16.0934 0 0
8:15 am 08:15 Cloudy 56 13.3 53 11.8 91 91 N 7 11 29.85 1011 10 16.0934 0 0
8:35 am 08:35 Cloudy 56 13.5 53 11.9 90 90 N 9 15 29.85 1011 10 16.0934 0 0
8:55 am 08:55 Cloudy 57 13.8 54 12.1 90 90 N 12 19 29.85 1011 10 16.0934 0 0
9:15 am 09:15 Cloudy 58 14.3 54 12.2 87 87 N 15 24 29.85 1011 10 16.0934 0 0
9:35 am 09:35 Cloudy 58 14.7 54 12.4 86 86 NNE 16 26 29.84 1010 10 16.0934 0 0
9:55 am 09:55 Cloudy 60 15.4 55 12.6 84 84 N 13 20 29.83 1010 10 16.0934 0 0
10:15 am 10:15 Cloudy 61 16.3 55 12.9 80 80 N 16 26 29.81 1010 10 16.0934 0 0
10:35 am 10:35 Cloudy 63 17 56 13.3 79 79 N 16 26 29.81 1009 10 16.0934 0 0
10:55 am 10:55 Cloudy 64 17.7 57 13.8 78 78 N 16 26 29.79 1009 10 16.0934 0 0
11:15 am 11:15 Cloudy 64 17.6 56 13.6 78 78 N 16 26 29.8 1009 10 16.0934 0 0
11:35 am 11:35 Cloudy 64 17.5 56 13.6 78 78 N 17 28 29.81 1010 10 16.0934 0 0
11:55 am 11:55 Cloudy 64 18 57 13.9 77 77 N 15 24 29.81 1009 10 16.0934 0 0
12:15 pm 12:15 Cloudy 64 17.7 56 13.2 75 75 NNE 12 19 29.82 1010 10 16.0934 0 0
12:35 pm 12:35 Cloudy 65 18.4 57 13.7 74 74 N 13 20 29.82 1010 10 16.0934 0 0
12:55 pm 12:55 Cloudy 65 18.3 57 13.8 75 75 NNE 13 20 29.82 1010 10 16.0934 0 0
1:15 pm 13:15 Cloudy 66 18.8 57 13.9 73 73 NNE 12 19 29.81 1010 10 16.0934 0 0
1:35 pm 13:35 Cloudy 66 19.1 57 13.9 72 72 NNE 14 22 29.8 1009 10 16.0934 0 0
1:55 pm 13:55 Cloudy 67 19.5 57 14 71 71 NNE 9 15 29.8 1009 10 16.0934 0 0
2:15 pm 14:15 Cloudy 69 20.5 58 14.2 67 67 NNE 13 20 29.78 1008 10 16.0934 0 0
2:35 pm 14:35 Cloudy 69 20.5 58 14.6 69 69 NNE 14 22 29.76 1008 10 16.0934 0 0
2:55 pm 14:55 Partly Cloudy 71 21.5 58 14.7 65 65 N 14 22 29.75 1007 10 16.0934 0 0
3:15 pm 15:15 Mostly Cloudy 70 21.1 58 14.4 66 66 N 15 24 29.75 1008 10 16.0934 0 0
3:35 pm 15:35 Cloudy 69 20.6 57 13.8 65 65 N 16 26 29.77 1008 10 16.0934 0 0
3:55 pm 15:55 Cloudy 70 21.1 58 14.3 65 65 NNE 16 26 29.75 1008 10 16.0934 0 0
4:15 pm 16:15 Cloudy 68 20 57 13.8 68 68 NNE 15 24 29.77 1008 10 16.0934 0 0
4:35 pm 16:35 Cloudy 67 19.6 56 13.6 68 68 NNE 10 17 29.78 1008 10 16.0934 0 0
4:55 pm 16:55 Cloudy 68 19.8 56 13.5 67 67 NNE 13 20 29.76 1008 10 16.0934 0 0
5:15 pm 17:15 Partly Cloudy 71 21.5 58 14.2 63 63 NE 16 26 29.75 1007 10 16.0934 0 0
5:35 pm 17:35 Sunny 71 21.6 57 13.7 61 61 NNE 10 17 29.75 1007 10 16.0934 0 0
5:55 pm 17:55 Mostly Cloudy 68 20.1 56 13.2 65 65 NE 12 19 29.77 1008 10 16.0934 0 0
6:15 pm 18:15 Cloudy 68 20 56 13.3 65 65 ENE 12 19 29.77 1008 10 16.0934 0 0
6:35 pm 18:35 Cloudy 67 19.6 56 13.6 68 68 NE 7 11 29.78 1008 10 16.0934 0 0
6:55 pm 18:55 Cloudy 67 19.6 56 13.2 67 67 NE 9 15 29.78 1008 10 16.0934 0 0
7:15 pm 19:15 Cloudy 67 19.2 57 13.8 71 71 NE 10 17 29.78 1008 10 16.0934 0 0
7:35 pm 19:35 Cloudy 67 19.4 57 13.9 71 71 NE 12 19 29.77 1008 10 16.0934 0 0
7:55 pm 19:55 Cloudy 66 19.1 57 13.8 72 72 NE 12 19 29.78 1008 10 16.0934 0 0
8:15 pm 20:15 Cloudy 66 18.9 57 13.8 72 72 NE 14 22 29.78 1009 10 16.0934 0 0
8:35 pm 20:35 Cloudy 65 18.6 57 14 75 75 NE 10 17 29.79 1009 10 16.0934 0 0
8:55 pm 20:55 Cloudy 65 18.3 57 13.8 75 75 NNE 9 15 29.81 1009 10 16.0934 0 0
9:15 pm 21:15 Cloudy with Light Rain 64 18 57 13.8 77 77 NE 12 19 29.82 1010 10 16.0934 0 0
9:35 pm 21:35 Cloudy 64 17.5 57 14 80 80 N 10 17 29.81 1010 10 16.0934 0 0
9:55 pm 21:55 Cloudy 64 17.5 57 13.7 79 79 NNE 12 19 29.8 1009 10 16.0934 0 0
10:15 pm 22:15 Cloudy 63 17.2 56 13.4 78 78 NNE 14 22 29.81 1009 10 16.0934 0 0
10:35 pm 22:35 Cloudy 63 17.1 56 13.3 78 78 NNE 14 22 29.81 1009 10 16.0934 0 0
10:55 pm 22:55 Cloudy with Heavy Thunderstorms 62 16.6 57 13.8 84 84 ENE 7 11 29.83 1010 7 11.26538 0.01 0.254
11:15 pm 23:15 Cloudy with Rain 60 15.6 58 14.2 91 91 NNE 14 22 29.84 1011 7 11.26538 0.09 2.286
11:35 pm 23:35 Cloudy with Light Rain 60 15.3 57 14.1 93 93 NE 10 17 29.84 1011 7 11.26538 0.13 3.302
11:55 pm 23:55 Cloudy with Nearby Thunderstorms 59 15.1 57 14 93 93 NNE 10 17 29.84 1010 10 16.0934 0.14 3.556

Powered by AerisWeather